Regional Weather Roundup
Issued by NWS Little Rock, AR

Home | Current Version | Previous Version | Text Only | Print | Product List | Glossary Off
Versions: 1 2 3 4 5 6 7 8 9 10 11 12 13 14 15 16 17 18 19 20 21 22 23 24 25 26 27 28 29 30 31 32

000
ASUS44 KLZK 271805
RWRLZK

WEATHER ROUNDUP FOR ARKANSAS
NATIONAL WEATHER SERVICE LITTLE ROCK AR
100 PM CDT TUE JUN 27 2017

NOTE: "FAIR" INDICATES FEW OR NO CLOUDS BELOW 12,000 FEET WITH NO
SIGNIFICANT WEATHER AND/OR OBSTRUCTIONS TO VISIBILITY.

ARZ001-003-010-029-271900-
NORTHWEST ARKANSAS

CITY           SKY/WX    TMP DP  RH WIND       PRES   REMARKS
FAYETTEVILLE   MOSUNNY   81  62  52 CALM      30.08F
6HR MIN TEMP:  60; 6HR MAX TEMP:  81;

FORT SMITH     MOSUNNY   84  65  52 S5        30.05F HX  86
6HR MIN TEMP:  67; 6HR MAX TEMP:  85;

HARRISON       SUNNY     78  60  53 VRB5      30.11F
6HR MIN TEMP:  62; 6HR MAX TEMP:  79;

BENTONVILLE    PTSUNNY   81  57  44 CALM      30.10S
6HR MIN TEMP:  64; 6HR MAX TEMP:  81;

ROGERS         PTSUNNY   81  60  48 E8        30.09F
6HR MIN TEMP:  64; 6HR MAX TEMP:  82;

SILOAM SPGS    MOSUNNY   82  61  47 CALM      30.07S
6HR MIN TEMP:  64; 6HR MAX TEMP:  82;

SPRINGDALE     PTSUNNY   81  63  54 SE7       30.10F
$$

ARZ004-005-016-271900-
NORTH CENTRAL ARKANSAS

CITY           SKY/WX    TMP DP  RH WIND       PRES   REMARKS
BATESVILLE     PTSUNNY   79  63  57 SE6       30.11F
6HR MIN TEMP:  64; 6HR MAX TEMP:  79;

FLIPPIN        MOSUNNY   79  61  53 SE5       30.08F
6HR MIN TEMP:  63; 6HR MAX TEMP:  79;

MTN HOME       SUNNY     77  63  61 VRB6      30.10F
6HR MIN TEMP:  62; 6HR MAX TEMP:  78;

$$

ARZ040-041-271900-
WEST CENTRAL ARKANSAS

CITY           SKY/WX    TMP DP  RH WIND       PRES   REMARKS
MENA           MOSUNNY   86  64  48 S3        30.08S HX  87
MOUNT IDA      MOSUNNY   82  60  47 SE6       30.06F
6HR MIN TEMP:  62; 6HR MAX TEMP:  84;

$$

ARZ009-017-025-026-028-271900-
NORTHEAST ARKANSAS

CITY           SKY/WX    TMP DP  RH WIND       PRES   REMARKS
JONESBORO        N/A     77  65  66 VRB5      30.11F
6HR MIN TEMP:  65; 6HR MAX TEMP:  77;

WALNUT RIDGE   SUNNY     75  61  60 E8        30.12F
6HR MIN TEMP:  64; 6HR MAX TEMP:  75;

BLYTHEVILLE    SUNNY     79  66  64 VRB3      30.12S
6HR MIN TEMP:  65; 6HR MAX TEMP:  79; 6HR PCP:  0.02;

$$

ARZ022-023-033-042-044-271900-
CENTRAL ARKANSAS

CITY           SKY/WX    TMP DP  RH WIND       PRES   REMARKS
LITTLE ROCK    MOSUNNY   81  64  56 E9        30.08F
6HR MIN TEMP:  64; 6HR MAX TEMP:  82;

N LITTLE ROCK    N/A     81  65  58 SE6       30.08F
6HR MIN TEMP:  64; 6HR MAX TEMP:  81;

CONWAY           N/A     82  66  57 SE6       30.07F HX  85
SEARCY         SUNNY     80  67  64 CALM      30.12S
6HR MIN TEMP:  65; 6HR MAX TEMP:  81;

HOT SPRINGS    MOSUNNY   83  62  49 SE9       30.08S
6HR MIN TEMP:  65; 6HR MAX TEMP:  84;

RUSSELLVILLE   SUNNY     80  64  58 VRB6      30.08F
6HR MIN TEMP:  66; 6HR MAX TEMP:  81;

CLINTON        FAIR      79  66  65 CALM      30.10F
$$

ARZ036-271900-
EAST ARKANSAS

CITY           SKY/WX    TMP DP  RH WIND       PRES   REMARKS
WEST MEMPHIS   SUNNY     81  65  58 NE5       30.09F
6HR MIN TEMP:  66; 6HR MAX TEMP:  81;

$$

ARZ050-053-066-070-073-271900-
SOUTHWEST ARKANSAS

CITY           SKY/WX    TMP DP  RH WIND       PRES   REMARKS
ARKADELPHIA    FAIR      83  64  52 VRB3      30.07F
6HR MIN TEMP:  65; 6HR MAX TEMP:  84;

CAMDEN         SUNNY     86  61  42 NE8       30.05F HX  86
TEXARKANA      MOSUNNY   85  63  47 VRB7      30.05F HX  86
6HR MIN TEMP:  66; 6HR MAX TEMP:  86;

EL DORADO      SUNNY     86  64  47 NE9       30.06F HX  87
6HR MIN TEMP:  66; 6HR MAX TEMP:  86;

DE QUEEN       SUNNY     86  69  56 VRB6      30.03F HX  90
6HR MIN TEMP:  68; 6HR MAX TEMP:  86;

$$

ARZ056-057-069-271900-
SOUTHEAST ARKANSAS

CITY           SKY/WX    TMP DP  RH WIND       PRES   REMARKS
PINE BLUFF     SUNNY     82  63  52 E8        30.08F
6HR MIN TEMP:  66; 6HR MAX TEMP:  82;

STUTTGART      MOSUNNY   82  59  44 E7        30.10F
6HR MIN TEMP:  66; 6HR MAX TEMP:  55;

MONTICELLO     MOSUNNY   84  63  49 CALM      30.07F HX  85
6HR MIN TEMP:  66; 6HR MAX TEMP:  84;


$$






USA.gov is the U.S. government's official web portal to all federal, state and local government web resources and services.